Weather History for KIXD - July, 2013

Change the Weather History Date:

Thursday, July 4, 2013

  Actual Average Record
Temperature  
Mean Temperature 73 °F -  
Max Temperature 87 °F 85 °F 100 °F (2012)
Min Temperature 60 °F 66 °F 54 °F (1997)
Cooling Degree Days 8    
Growing Degree Days 23 (Base 50)    
Moisture  
Dew Point 54 °F    
Average Humidity 52    
Maximum Humidity 78    
Minimum Humidity 26    
Precipitation  
Precipitation 0.00 in - - ()
Sea Level Pressure  
Sea Level Pressure 30.00 in    
Wind  
Wind Speed 6 mph (SSE)    
Max Wind Speed 10 mph    
Max Gust Speed -    
Visibility 10 miles    
Events      
Averages and records for this station are not official NWS values.
T = Trace of Precipitation, MM = Missing Value Source: NWS Daily Summary

Daily Weather History Graph

Daily Weather History Graph

Search for Another Location

Airport or City:

Trip Planner

Search our weather history database for the weather conditions in past years. The results will help you decide how hot, cold, wet, or windy it might be!

Date:

Astronomy

Jul. 04, 2013 Rise Set
Actual Time 5:59 AM CDT 8:48 PM CDT
Civil Twilight 5:28 AM CDT 9:19 PM CDT
Nautical Twilight 4:48 AM CDT 9:59 PM CDT
Astronomical Twilight 4:02 AM CDT 10:44 PM CDT
Moon 3:16 AM CDT (7/4) 5:53 PM CDT (7/4)
Length of Visible Light 15h 51m
Length of Day
14h 48m
Waning Crescent, 11% of the Moon is Illuminated
Jul 4
Waning Crescent
Jul 8
New
Jul 15
First Quarter
Jul 22
Full
Jul 29
Last Quarter

Hourly Weather History & Observations

Time (CDT) Temp. Heat Index Dew Point Humidity Pressure Visibility Wind Dir Wind Speed Gust Speed Precip Events Conditions
12:53 AM 64.0 °F - 53.1 °F 67% 30.02 in 10.0 mi SE 3.5 mph - N/A   Clear
1:53 AM 64.9 °F - 52.0 °F 63% 30.01 in 10.0 mi SE 6.9 mph - N/A   Clear
2:53 AM 63.0 °F - 52.0 °F 67% 30.00 in 10.0 mi SSE 5.8 mph - N/A   Clear
3:53 AM 61.0 °F - 53.1 °F 75% 30.00 in 10.0 mi SSE 5.8 mph - N/A   Clear
4:53 AM 63.0 °F - 53.1 °F 70% 30.00 in 10.0 mi SSE 6.9 mph - N/A   Clear
5:53 AM 60.1 °F - 53.1 °F 78% 30.01 in 10.0 mi SSE 5.8 mph - N/A   Clear
6:53 AM 61.0 °F - 54.0 °F 78% 30.04 in 10.0 mi SSE 5.8 mph - N/A   Clear
7:53 AM 66.9 °F - 55.0 °F 66% 30.04 in 10.0 mi SSE 8.1 mph - N/A   Clear
8:53 AM 71.1 °F - 55.9 °F 59% 30.05 in 10.0 mi SSE 6.9 mph - N/A   Clear
9:53 AM 75.0 °F - 57.0 °F 53% 30.04 in 10.0 mi South 6.9 mph - N/A   Clear
10:53 AM 79.0 °F - 57.9 °F 48% 30.04 in 10.0 mi South 3.5 mph - N/A   Clear
11:53 AM 82.9 °F 82.0 °F 55.0 °F 38% 30.03 in 10.0 mi Variable 5.8 mph - N/A   Clear
12:53 PM 84.0 °F 82.5 °F 53.1 °F 34% 30.02 in 10.0 mi SSE 9.2 mph - N/A   Clear
1:53 PM 84.9 °F - 46.0 °F 26% 30.00 in 10.0 mi Variable 3.5 mph - N/A   Clear
2:53 PM 86.0 °F 84.0 °F 53.1 °F 32% 29.99 in 10.0 mi South 8.1 mph - N/A   Clear
3:53 PM 86.0 °F 84.0 °F 53.1 °F 32% 29.97 in 10.0 mi SSE 8.1 mph - N/A   Partly Cloudy
4:53 PM 86.0 °F 84.0 °F 53.1 °F 32% 29.96 in 10.0 mi South 8.1 mph - N/A   Clear
5:53 PM 84.9 °F - 52.0 °F 32% 29.95 in 10.0 mi South 8.1 mph - N/A   Clear
6:53 PM 84.0 °F 82.6 °F 54.0 °F 35% 29.95 in 10.0 mi SSE 9.2 mph - N/A   Clear
7:53 PM 82.0 °F 81.4 °F 55.0 °F 39% 29.94 in 10.0 mi SSE 6.9 mph - N/A   Clear
8:53 PM 77.0 °F - 55.9 °F 48% 29.95 in 10.0 mi SE 5.8 mph - N/A   Clear
9:53 PM 75.0 °F - 55.9 °F 51% 29.96 in 10.0 mi SE 6.9 mph - N/A   Clear
10:53 PM 73.0 °F - 57.0 °F 57% 29.97 in 9.0 mi SSE 10.4 mph - N/A   Clear
11:53 PM 71.1 °F - 57.9 °F 63% 29.96 in 10.0 mi SSE 8.1 mph - N/A   Clear